88P/Howell (1998)

Japanese version
Home page
Total 6,336 html files since Dec. 4, 1995
Updated on September 29, 2004

---------------------------------------------------------------------

* Profile

* Pictures

* Orbital Elements

   The following improved orbital elements by Kenji Muraoka, are 
  from 262 observations  1987 to 1999, including 9 Planets, Moon 
  and 5 minor planets perturbations and non-gravitational effect 
  of style II.    The mean residual is +/- 0.80 arc seconds.

      Epoch  =  1998 Sept. 24.0  TT      JDT = 2451080.5
          T  =  1998 Sept. 27.18709      +/- 0.01119 (m.e.) TT
       Peri. =  234.91135                +/- 0.00106
       Node  =   57.66573                +/- 0.00049   (2000.0)
       Incl. =    4.39839                +/- 0.00008
          q  =    1.4061289              +/- 0.0000099 AU
          e  =    0.5526725              +/- 0.0000026
          a  =    3.1433993              +/- 0.0000091 AU
          n  =    0.17684987             +/- 0.00000077
          P  =    5.573                  +/- 0.0000243  years
         A1  =   +0.410                  +/- 0.016
         A2  =   -0.05130                +/- 0.00094

* Finding Charts

* Magnitudes Graph

        m1 = 5.5 + 5 log d + 25 log r(t - 33)

---------------------------------------------------------------------

The orbital elements are calculated by Kenji Muraoka.
The charts are made with StellaNavigator Ver.2.0 for Windows (AstroArts / ASCII).
The magnitudes graphs are made with Comet for Windows.

---------------------------------------------------------------------

Copyright(C) 1995-2008 Seiichi Yoshida (comet@aerith.net). All rights reserved.